Location: Unspecified
(0.0000°N, 0.0000°E)
Time: 07:34:08
(UTC+00:00)

Vanguard 1 Rocket - Pass Details

Date: 27 November 2022
Orbit: 651 x 4224 km, 34.3° (Epoch: 04 February)

Event Time Altitude Azimuth Distance (km) Brightness Sun altitude
Rises 18:33:55 0° 254° (WSW) 8,230 14.4 -10.8°
Reaches altitude 10° 18:42:26 10° 240° (WSW) 7,410 13.5 -12.7°
Maximum altitude 19:00:08 22° 197° (SSW) 6,140 12.0 -16.8°
Drops below altitude 10° 19:14:54 10° 152° (SSE) 6,117 11.5 -20.2°
Sets 19:20:56 0° 136° (SE) 6,539 11.6 -21.6°
